Regional Weather Roundup
Issued by NWS

Home | Current Version | Previous Version | Text Only | Print | Product List | Glossary On
Versions: 1 2 3 4 5 6 7 8 9 10 11 12 13 14 15 16 17 18 19 20 21 22 23 24 25 26 27 28 29 30 31 32 33 34 35 36 37 38 39 40 41 42 43 44 45 46 47 48 49 50
617
ASUS43 KLOT 112108
RWRIL

ILLINOIS REGIONAL WEATHER ROUNDUP
NATIONAL WEATHER SERVICE CHICAGO/ROMEOVILLE IL
300 PM CST THU FEB 11 2016

NOTE: "FAIR" INDICATES FEW OR NO CLOUDS BELOW 12,000 FEET WITH NO
SIGNIFICANT WEATHER AND/OR OBSTRUCTIONS TO VISIBILITY.

* THESE STATIONS ARE NOT UNDER NWS QUALITY CONTROL. THEY ALSO MAY NOT
  REPORT WEATHER SUCH AS PRECIPITATION OR FOG.

ILZ001-002-007-009-015-016-024-112200-
NORTHWEST ILLINOIS

CITY           SKY/WX    TMP DP  RH WIND       PRES   REMARKS
MOLINE         SUNNY     24   1  36 W5        30.30F WCI  18
STERLING*      SUNNY     25   3  39 W6        30.28S WCI  18
SAVANNA*       SUNNY     22   1  40 SW5       30.30F WCI  15
$$

ILZ003-004-008-010-011-017-018-112200-
NORTH CENTRAL ILLINOIS

CITY           SKY/WX    TMP DP  RH WIND       PRES   REMARKS
ROCKFORD       MOSUNNY   21   3  45 NW6       30.30F WCI  13
FREEPORT*      SUNNY     19   2  47 CALM      30.30F
ROCHELLE*      SUNNY     21   5  50 W3        30.29F
DE KALB*       SUNNY     20   6  55 NW6       30.28F WCI  12
$$

ILZ005-006-012>014-019>023-112200-
NORTHEAST ILLINOIS

CITY           SKY/WX    TMP DP  RH WIND       PRES   REMARKS
CHICAGO-OHARE  MOSUNNY   21   2  43 W7        30.27F WCI  12
CHICAGO-MIDWAY MOSUNNY   23  -1  35 VRB3      30.29S
AURORA         SUNNY     22   7  52 W6        30.29F WCI  14
LANSING*       SUNNY     22   0  37 NW3       30.29S
JOLIET*        SUNNY     23   4  43 NW6       30.30F WCI  16
WAUKEGAN       SUNNY     20   1  43 W6        30.26F WCI  12
DUPAGE AIRPORT SUNNY     20   2  45 NW6       30.27F WCI  12
KANKAKEE*      SUNNY     23   6  48 SW9       30.31S WCI  13
WHEELING       SUNNY     20   0  41 W9        30.29F WCI   9
MORRIS*        SUNNY     22   5  48 W3        30.28S
ROMEOVILLE*    SUNNY     22   2  41 NW8       30.29S WCI  12
NORTHERLY ISL    N/A     20   6  55 E3          N/A
$$

LMZ740>746-112200-
SOUTHERN LAKE MICHIGAN

STATION/POSITION SKY/WX   TEMP    WIND        PRES    VSBY  WAVE
                          AIR SEA DIR/SP/G                  HT/PER
                          (F)     (DEG/KT/KT) (MB)    (MI)  (FT/S)
HARRISON CRIB              18     360/  4/  7   N/A
BURNHAM HARBOR             20      60/  4/  8   N/A
CALUMET HARBOR             18      20/  8/ 11 1025.1F
BURNS HARBOR               18     310/  8/ 18 1026.4F
MICHIGAN CITY              19     270/ 12/ 13   N/A
$$

ILZ025>027-034>036-040-047-049-050-058-095>099-112200-
WEST-CENTRAL ILLINOIS

CITY           SKY/WX    TMP DP  RH WIND       PRES   REMARKS
QUINCY         MOSUNNY   22   7  52 N6        30.29F WCI  14
GALESBURG*     SUNNY     24   5  44 E3        30.30F
MACOMB*        SUNNY     25   8  48 CALM      30.32F
JACKSONVILLE*  MOSUNNY   26  10  50 NE5       30.31F WCI  21
PITTSFIELD*    MOSUNNY   25   8  49 CALM      30.30F
$$

ILZ028>032-037-038-041>044-048-051>054-059>061-112200-
CENTRAL ILLINOIS

CITY           SKY/WX    TMP DP  RH WIND       PRES   REMARKS
PONTIAC        SUNNY     23   8  52 NW3       30.31F
BLOOMINGTON    SUNNY     25   6  44 VRB3      30.30S
DECATUR        SUNNY     25   7  46 VRB6      30.30S WCI  18
PEORIA         SUNNY     27   2  34 VRB3      30.31S
LACON*         SUNNY     23   3  42 NW3       30.31S
LINCOLN*       SUNNY     26   8  47 N3        30.31S
SPRINGFIELD    SUNNY     27   6  41 CALM      30.31S
TAYLORVILLE    SUNNY     27   9  46 N3        30.31S
$$

ILZ033-039-045-046-055>057-062-063-112200-
EAST-CENTRAL ILLINOIS

CITY           SKY/WX    TMP DP  RH WIND       PRES   REMARKS
CHAMPAIGN      SUNNY     24   3  40 N6        30.29S WCI  17
RANTOUL*       SUNNY     23   9  53 NW6       30.30S WCI  16
MATTOON        SUNNY     23   8  52 N6        30.29S WCI  16
PARIS*         SUNNY     24  10  54 NW3       30.31S
$$

ILZ079-100>102-112200-
SOUTHWEST ILLINOIS

CITY           SKY/WX    TMP DP  RH WIND       PRES   REMARKS
ALTON          MOSUNNY   27   7  43 NE8       30.31S WCI  18
BELLEVILLE     SUNNY     30  10  42 NE8       30.30R WCI  22
CAHOKIA*       SUNNY     31  11  43 VRB7      30.30F WCI  24
SPARTA*        SUNNY     28  17  62 N6        30.30S WCI  22
$$

ILZ064>066-069>071-074>076-080>082-084>086-088>090-092>094-112200-
SOUTH-CENTRAL ILLINOIS

CITY           SKY/WX    TMP DP  RH WIND       PRES   REMARKS
CARBONDALE     SUNNY     33  18  53 N7        30.29R WCI  27
CAIRO*         SUNNY     38  25  61 N9        30.25F WCI  31
EFFINGHAM*     SUNNY     26  11  53 NW5       30.32F WCI  21
MT. VERNON     SUNNY     30  10  43 N5        30.30R WCI  25
CENTRALIA*     SUNNY     29  13  50 N5        30.29R WCI  24
SALEM*         SUNNY     29   8  40 N7        30.30R WCI  22
METROPOLIS*    SUNNY     37  25  63 N3        30.27R
$$

ILZ067-068-072-073-078-083-087-091-112200-
SOUTHEAST ILLINOIS

CITY           SKY/WX    TMP DP  RH WIND       PRES   REMARKS
LAWRENCEVILLE  SUNNY     28   9  44 N7        30.31R WCI  21
FLORA*         SUNNY     31  11  43 N8        30.31R WCI  23
FAIRFIELD*     SUNNY     31  10  41 N7        30.29R WCI  25
HARRISBURG*    SUNNY     32  20  60 N5        30.29R WCI  27
ROBINSON*      SUNNY     26   6  41 N7        30.33R WCI  18
CARMI*         SUNNY     32  15  49 N3        30.29R
$$

ABBREVIATIONS USED IN REMARKS
   TC - TEMPERATURE IN CELSIUS
  WCI - WIND CHILL INDEX
   HX - HEAT INDEX
  VSB - VISIBILITY
$$





USA.gov is the U.S. government's official web portal to all federal, state and local government web resources and services.